Temp
13 13 13 14 14 14 14 14 15 15 15 16 16 16 17 17 18 18 17 18 19 19 19 19 19 19 20 20 20 20 24 24 25 24 25 22 23 20 20 21 19 19 20 19 17
12 13 13 14 14 14 14 14 14 15 15 16 16 16 17 17 17 18 18 18 19 19 19 19 19 19 21 20 21 23 24 25 24 25 24 22 23 22 21 22 21 20 18 18 15
12 12 12 13 13 14 14 14 14 14 15 15 16 16 17 17 16 17 18 18 19 19 19 19 19 20 21 21 21 23 24 24 23 22 21 23 21 21 21 23 22 22 21 17 16
11 12 12 12 13 14 14 14 14 14 15 15 16 16 17 17 19 17 18 18 18 19 18 19 19 20 22 22 21 22 21 22 21 18 19 21 21 21 21 23 22 22 22 18 16
11 11 12 12 13 13 13 14 14 15 15 15 16 16 16 17 17 17 18 18 18 18 18 18 20 21 22 22 20 22 21 19 18 18 19 18 20 21 22 22 21 21 20 19 18
11 11 11 12 13 13 13 13 14 14 15 15 16 16 16 18 17 17 18 18 17 17 18 18 20 20 21 21 21 20 20 20 18 19 18 18 21 18 21 21 22 19 19 19 18
11 11 11 12 12 13 13 14 14 14 14 15 16 16 16 17 17 17 17 17 17 17 17 18 19 18 19 19 17 18 20 20 20 19 20 18 20 20 21 20 20 20 19 20 19
10 11 11 12 12 13 13 14 14 14 15 15 16 16 17 16 17 16 16 17 17 17 18 18 18 18 18 17 19 20 20 21 22 19 18 18 22 22 21 20 20 21 21 20 20
9 10 11 11 12 12 13 14 14 14 14 15 15 15 17 16 16 16 16 16 17 17 17 18 18 18 17 20 20 20 22 22 21 19 20 19 22 23 18 18 20 21 21 21 21
9 9 10 11 11 12 13 14 14 14 15 15 15 15 15 14 15 15 15 16 16 17 16 17 18 20 20 21 21 22 21 21 21 19 17 19 19 22 21 19 20 21 22 21 20
9 9 10 10 11 11 12 13 14 14 14 15 14 14 14 14 15 15 15 15 15 17 18 16 19 19 21 21 22 20 21 21 22 19 17 20 21 22 22 22 22 22 21 21 22
8 8 9 10 10 10 11 12 13 13 15 14 14 14 14 14 13 14 14 15 16 18 17 17 18 21 19 19 18 19 20 20 22 18 16 19 20 21 21 22 22 22 22 22 22
8 8 9 9 10 10 11 11 12 13 13 13 13 13 14 14 15 14 14 15 17 18 17 18 19 18 17 17 17 18 19 20 20 17 18 17 19 22 24 22 21 21 21 21 22
7 8 8 9 8 10 10 11 11 12 15 15 13 12 13 13 14 14 14 14 15 17 17 18 17 16 16 18 18 19 20 18 17 17 19 18 19 22 23 24 24 22 22 21 21
7 8 8 8 9 9 11 10 11 12 12 15 11 11 11 14 13 11 12 13 16 15 16 17 15 14 16 17 18 18 16 17 16 16 17 18 16 21 23 22 23 23 23 22 22
5 6 8 7 8 9 10 9 10 11 11 13 12 12 12 12 11 10 11 12 13 15 14 16 12 15 17 13 16 14 15 16 15 16 16 19 18 21 23 24 24 23 22 22 20
5 5 6 7 7 8 9 8 9 9 12 13 12 12 13 12 12 12 12 13 15 14 15 16 14 14 13 14 13 15 17 17 16 15 17 15 16 20 22 22 22 22 21 21 18
4 5 6 6 7 7 8 7 8 9 12 11 11 11 12 13 13 12 13 14 15 16 16 16 15 14 14 16 16 14 17 17 16 17 18 11 15 20 22 21 20 19 19 19 18
2 4 5 6 6 6 6 7 9 10 13 11 11 12 12 12 12 12 13 14 16 15 15 17 16 15 13 16 18 15 14 17 16 9 13 18 20 22 18 17 19 19 19 18 18
1 3 5 5 6 6 6 8 11 13 13 13 12 13 13 12 11 12 14 15 14 14 15 17 15 12 12 12 13 14 17 14 15 13 14 18 19 20 21 21 20 19 19 18 16
1 2 4 5 5 5 6 8 11 11 11 12 13 13 12 10 10 11 13 14 14 14 14 15 14 11 11 12 14 13 13 14 15 15 15 16 19 22 22 21 21 19 17 16 16
0 4 3 3 5 6 6 8 9 11 11 11 12 13 12 11 11 11 12 13 12 12 12 14 14 13 13 13 12 15 15 15 14 13 14 14 17 18 20 20 17 18 17 16 16
1 2 2 3 6 7 8 8 9 9 10 11 11 12 12 12 9 11 12 13 11 12 11 11 9 9 12 12 10 11 14 13 15 13 13 13 16 20 20 18 18 17 17 16 17
1 3 2 1 5 7 7 8 8 8 9 10 11 11 11 11 11 10 10 12 10 11 10 8 6 8 11 14 14 12 13 14 13 12 13 14 16 19 19 19 19 18 16 16 17
0 3 4 3 3 5 7 8 7 7 8 8 9 9 10 9 10 11 12 12 9 9 9 8 6 7 10 12 12 12 13 13 12 13 12 14 15 17 18 18 19 18 18 17 17
0 2 1 3 5 4 5 6 6 8 7 7 8 9 9 9 10 10 9 8 10 10 9 7 7 9 8 11 12 11 12 13 13 13 14 14 15 17 17 17 17 17 17 16 15
-1 -1 1 3 4 5 4 5 6 7 7 8 8 8 8 8 7 6 5 5 5 5 7 6 5 6 7 9 9 7 8 12 12 13 13 13 15 16 16 16 16 16 16 15 15
Height
1504 1505 1506 1508 1508 1510 1510 1511 1512 1512 1514 1515 1515 1517 1517 1515 1515 1517 1519 1520 1520 1522 1524 1524 1527 1528 1529 1530 1531 1532 1527 1524 1522 1526 1524 1530 1533 1537 1538 1539 1541 1541 1541 1542 1544
1503 1505 1507 1506 1507 1509 1509 1511 1512 1512 1513 1514 1514 1516 1514 1513 1516 1517 1519 1518 1519 1521 1524 1524 1528 1529 1530 1530 1532 1530 1525 1520 1521 1523 1525 1529 1531 1534 1538 1537 1539 1540 1540 1541 1542
1502 1505 1507 1507 1508 1509 1510 1511 1512 1512 1513 1512 1514 1514 1513 1514 1518 1517 1516 1517 1519 1521 1523 1524 1527 1529 1529 1529 1530 1528 1525 1521 1526 1527 1530 1529 1532 1534 1535 1533 1534 1535 1538 1538 1540
1500 1502 1504 1506 1508 1508 1510 1511 1511 1513 1513 1510 1511 1512 1514 1516 1516 1515 1515 1517 1520 1520 1523 1524 1526 1529 1527 1527 1530 1528 1527 1527 1529 1530 1532 1532 1530 1531 1532 1531 1532 1534 1535 1536 1537
1499 1501 1503 1504 1506 1507 1510 1509 1511 1510 1511 1513 1512 1514 1515 1516 1514 1515 1514 1517 1519 1520 1523 1525 1525 1526 1526 1526 1530 1527 1528 1530 1529 1531 1532 1534 1531 1530 1526 1529 1530 1531 1532 1534 1535
1499 1501 1503 1505 1506 1506 1506 1507 1509 1510 1511 1513 1513 1513 1513 1515 1513 1514 1515 1517 1519 1521 1523 1524 1525 1527 1525 1527 1529 1528 1528 1529 1530 1531 1531 1533 1530 1530 1523 1525 1527 1528 1529 1531 1532
1497 1500 1501 1502 1504 1505 1507 1508 1508 1508 1510 1511 1511 1510 1511 1513 1512 1513 1515 1517 1518 1521 1522 1523 1524 1526 1527 1529 1531 1530 1528 1528 1528 1528 1530 1532 1528 1520 1521 1522 1524 1525 1526 1527 1528
1497 1498 1500 1503 1503 1504 1505 1506 1507 1508 1509 1508 1509 1510 1510 1510 1511 1512 1516 1518 1518 1520 1522 1522 1523 1525 1528 1531 1530 1527 1527 1525 1520 1527 1530 1532 1521 1515 1515 1519 1520 1521 1521 1522 1523
1496 1498 1499 1500 1501 1503 1504 1505 1505 1506 1506 1508 1509 1510 1509 1509 1511 1513 1516 1517 1518 1520 1522 1522 1524 1526 1530 1527 1527 1525 1519 1519 1520 1526 1527 1529 1517 1512 1515 1517 1516 1516 1516 1516 1518
1495 1496 1498 1498 1500 1502 1501 1502 1503 1506 1506 1507 1508 1510 1507 1509 1510 1511 1515 1517 1519 1521 1523 1523 1524 1523 1524 1523 1526 1517 1523 1519 1519 1524 1528 1524 1519 1512 1513 1514 1513 1511 1510 1511 1511
1493 1495 1496 1497 1499 1500 1502 1504 1506 1505 1504 1505 1506 1505 1503 1508 1508 1510 1514 1518 1517 1522 1520 1521 1522 1522 1518 1518 1516 1519 1517 1517 1513 1524 1527 1518 1512 1508 1507 1506 1505 1503 1503 1503 1502
1490 1492 1494 1495 1498 1500 1500 1501 1502 1504 1504 1501 1503 1503 1505 1508 1509 1510 1515 1518 1517 1517 1520 1522 1520 1513 1519 1519 1525 1523 1523 1518 1513 1523 1529 1517 1507 1505 1502 1496 1498 1495 1495 1495 1495
1486 1488 1492 1494 1496 1498 1500 1503 1503 1503 1504 1501 1500 1503 1506 1508 1508 1508 1514 1514 1513 1514 1517 1514 1513 1516 1519 1524 1526 1522 1522 1517 1521 1525 1520 1521 1503 1491 1485 1489 1490 1488 1487 1487 1487
1485 1487 1489 1493 1497 1493 1497 1500 1502 1502 1498 1494 1498 1499 1502 1506 1508 1506 1511 1514 1515 1514 1514 1515 1513 1517 1520 1518 1520 1520 1515 1520 1525 1528 1523 1521 1510 1488 1482 1479 1481 1480 1480 1478 1481
1481 1485 1487 1490 1492 1493 1496 1499 1501 1502 1508 1493 1496 1497 1499 1504 1504 1505 1507 1511 1509 1513 1515 1510 1515 1518 1518 1515 1517 1516 1521 1523 1526 1526 1525 1519 1527 1487 1476 1480 1475 1473 1473 1474 1476
1481 1484 1486 1487 1489 1492 1494 1497 1500 1507 1505 1490 1494 1496 1498 1501 1503 1505 1508 1510 1511 1513 1514 1510 1515 1514 1513 1519 1518 1522 1523 1525 1527 1527 1525 1508 1512 1482 1472 1467 1469 1470 1470 1472 1473
1478 1482 1486 1484 1487 1491 1493 1496 1505 1504 1491 1486 1491 1494 1494 1498 1503 1503 1504 1505 1504 1514 1507 1509 1511 1513 1515 1519 1523 1520 1520 1525 1528 1534 1514 1510 1511 1478 1471 1468 1470 1471 1468 1470 1470
1476 1479 1480 1481 1486 1489 1492 1499 1496 1489 1482 1490 1490 1493 1492 1494 1496 1502 1502 1500 1500 1497 1500 1502 1507 1507 1509 1503 1510 1516 1511 1514 1523 1516 1502 1522 1501 1468 1464 1467 1467 1467 1467 1466 1467
1475 1476 1479 1482 1484 1489 1492 1490 1483 1481 1476 1485 1490 1488 1490 1492 1494 1498 1496 1493 1490 1496 1499 1493 1498 1499 1502 1504 1502 1513 1516 1503 1513 1534 1524 1491 1466 1458 1464 1466 1464 1464 1465 1465 1464
1474 1474 1476 1479 1484 1487 1489 1481 1476 1472 1476 1478 1480 1481 1480 1488 1494 1495 1489 1483 1488 1491 1495 1488 1495 1503 1505 1507 1504 1502 1499 1515 1513 1524 1518 1482 1474 1463 1459 1459 1460 1463 1461 1462 1462
1475 1477 1475 1478 1483 1484 1478 1475 1473 1475 1476 1477 1475 1475 1479 1489 1493 1496 1485 1484 1486 1488 1490 1489 1494 1506 1507 1501 1494 1505 1506 1505 1500 1500 1498 1494 1468 1446 1450 1455 1457 1463 1463 1462 1461
1474 1476 1474 1476 1482 1477 1472 1473 1473 1474 1476 1477 1476 1472 1474 1481 1486 1488 1486 1483 1488 1491 1491 1490 1489 1490 1493 1492 1496 1489 1487 1493 1497 1501 1498 1495 1468 1450 1453 1457 1460 1461 1462 1462 1463
1474 1475 1473 1475 1471 1466 1468 1469 1472 1472 1471 1473 1473 1472 1475 1476 1489 1485 1481 1483 1488 1491 1491 1493 1503 1503 1496 1495 1497 1494 1486 1490 1486 1493 1493 1497 1470 1447 1450 1457 1459 1460 1460 1460 1462
1474 1471 1472 1473 1465 1462 1464 1465 1466 1470 1470 1471 1470 1471 1473 1475 1478 1480 1482 1483 1486 1488 1493 1498 1506 1501 1486 1472 1475 1485 1486 1485 1489 1493 1481 1477 1460 1446 1448 1454 1455 1459 1459 1460 1460
1468 1462 1460 1461 1462 1461 1460 1458 1462 1465 1468 1470 1470 1469 1469 1474 1473 1472 1475 1479 1486 1489 1492 1497 1500 1498 1486 1481 1477 1480 1481 1478 1483 1480 1483 1465 1467 1446 1448 1453 1455 1456 1456 1454 1455
1459 1459 1459 1455 1454 1458 1460 1456 1458 1459 1464 1464 1465 1465 1469 1469 1467 1472 1478 1481 1477 1483 1486 1491 1489 1485 1483 1476 1475 1474 1473 1470 1466 1467 1468 1460 1457 1446 1448 1450 1452 1452 1451 1449 1450
1450 1452 1454 1449 1451 1452 1451 1449 1453 1461 1460 1462 1464 1467 1467 1471 1476 1478 1482 1485 1487 1490 1486 1490 1490 1490 1478 1474 1477 1482 1469 1460 1460 1458 1458 1460 1445 1449 1445 1446 1446 1444 1447 1446 1444
Wind_Speed
14 13 12 11 9 9 8 8 7 7 7 6 5 4 4 4 4 6 6 9 7 8 8 6 5 5 7 3 4 4 8 8 7 5 3 8 9 5 5 7 4 5 2 4 17
13 12 12 11 10 9 8 7 7 7 6 6 5 5 3 3 5 6 8 9 8 9 8 7 6 7 6 4 3 8 9 8 4 3 3 9 11 8 7 12 12 9 8 7 15
14 11 11 10 10 9 8 7 6 5 5 5 5 4 4 5 4 7 9 9 9 9 9 9 7 6 7 5 6 4 10 1 2 1 1 7 9 6 10 12 13 13 14 13 15
13 12 10 9 9 9 8 7 6 5 4 3 4 3 5 8 3 6 9 9 10 9 9 9 8 6 6 7 5 7 4 3 1 2 2 5 3 8 16 16 3 11 7 17 18
12 12 11 10 9 9 8 7 6 5 4 4 4 4 6 4 3 4 7 8 9 10 9 8 8 8 8 5 5 8 4 4 3 2 3 4 8 9 16 18 13 11 12 16 18
11 11 11 10 9 8 7 6 6 5 4 5 4 5 5 7 5 6 6 7 9 9 10 8 4 5 2 3 8 2 5 5 4 5 3 5 9 3 9 15 18 16 16 15 18
11 10 10 9 8 8 7 6 5 4 4 4 3 4 5 5 8 9 7 7 8 9 8 9 5 2 3 4 3 3 5 6 10 6 3 3 11 17 17 10 11 20 19 19 20
11 10 10 9 9 9 8 7 6 6 5 3 3 2 2 7 9 10 9 8 8 9 9 9 9 5 1 5 4 5 3 8 7 8 3 4 13 3 4 13 17 18 19 20 22
10 10 9 8 8 8 8 8 7 7 6 4 3 2 2 6 10 11 12 8 9 10 8 10 8 4 4 6 6 7 8 12 6 7 2 11 9 2 2 8 15 17 19 22 23
9 9 8 7 6 6 6 6 7 7 7 5 6 3 5 4 11 13 12 12 8 11 7 4 4 6 7 9 10 9 10 6 8 5 6 11 16 18 14 11 16 19 20 20 22
11 8 7 5 5 3 2 3 2 2 8 4 2 1 2 6 9 13 14 12 8 8 7 5 8 10 15 14 10 5 6 7 2 3 4 12 18 19 21 22 24 27 27 27 29
16 14 11 8 6 4 3 2 2 2 2 10 13 8 3 10 4 12 16 10 9 10 4 5 12 13 3 2 7 9 12 13 8 1 3 13 22 18 23 26 26 29 28 28 28
16 15 14 12 10 9 5 3 1 1 3 3 8 8 8 9 4 12 18 7 8 13 12 14 2 6 6 7 10 12 13 12 8 4 12 11 18 15 13 16 20 29 32 31 31
12 13 12 14 11 10 9 8 4 2 4 6 6 5 7 8 6 11 15 5 5 13 11 11 7 6 8 13 12 14 8 12 6 5 6 1 9 18 17 17 13 23 24 27 22
16 14 13 18 7 10 8 10 10 4 4 7 3 3 8 8 7 7 19 8 9 8 7 5 9 10 11 8 11 2 3 4 3 6 9 13 7 9 11 10 15 19 19 17 15
11 12 14 16 11 8 9 14 14 5 10 5 5 5 6 6 2 4 8 3 1 5 6 3 1 6 5 4 6 12 7 3 1 3 8 12 12 12 14 10 6 6 4 5 3
11 12 17 14 10 13 14 17 3 5 2 7 5 6 9 7 5 7 12 12 12 8 15 10 9 4 5 6 4 10 7 4 5 5 9 5 6 14 13 12 10 11 19 9 7
9 13 14 15 14 12 21 2 6 8 13 2 4 5 8 10 7 6 6 14 18 15 7 14 10 14 13 12 8 15 13 7 6 7 10 3 9 6 7 12 14 17 16 18 13
6 8 14 17 15 20 12 6 6 6 6 10 5 5 7 7 3 11 16 15 13 19 12 11 11 4 2 8 12 7 10 10 9 3 4 9 19 19 11 11 17 21 20 19 16
6 5 12 19 19 20 5 12 12 10 9 12 15 11 11 11 8 10 12 6 14 14 24 7 14 1 3 3 8 7 3 7 6 6 9 14 18 13 6 9 6 7 8 7 6
2 3 8 18 21 12 7 10 12 4 8 10 13 13 11 8 8 6 5 2 7 3 18 13 7 3 4 11 15 7 7 6 4 7 7 11 11 9 5 2 1 1 2 4 7
2 3 9 21 12 8 12 6 4 11 15 7 7 10 10 7 7 14 12 8 3 5 6 12 4 12 11 3 4 14 18 19 7 6 6 6 16 6 1 1 2 2 5 5 2
5 5 6 22 9 12 14 20 20 9 12 12 12 13 11 12 7 13 12 6 7 3 3 2 3 3 4 5 2 6 14 9 18 2 11 9 11 3 4 3 8 9 7 6 7
5 4 5 18 17 13 17 17 19 14 17 17 6 15 15 16 11 5 9 3 6 10 12 10 6 6 10 2 4 6 13 16 16 12 20 18 25 25 17 11 10 11 8 11 15
12 6 8 7 13 14 14 8 19 14 17 14 8 17 15 13 17 21 18 16 8 6 5 9 6 12 20 23 23 20 19 16 19 23 22 25 24 31 23 18 20 24 24 25 28
9 7 7 8 18 19 14 14 16 19 12 14 17 15 16 18 18 11 2 6 14 9 10 4 4 9 16 21 20 22 20 18 21 24 24 30 28 28 33 32 27 28 30 31 28
19 14 7 11 8 13 18 19 11 15 16 19 14 14 12 11 6 8 6 4 3 3 4 6 3 3 10 11 10 10 20 25 24 23 22 21 27 22 26 23 30 33 29 30 33
Wind_Direction
197 194 190 192 195 194 191 190 192 188 195 203 198 216 216 191 187 184 179 201 201 190 191 181 184 195 170 199 217 254 248 243 241 237 221 159 192 183 211 238 221 216 284 160 171
196 197 196 193 195 200 196 194 200 197 199 204 204 215 216 183 190 194 202 199 200 192 191 173 184 177 186 191 206 236 239 255 22 268 243 182 201 188 217 221 234 225 208 181 176
190 196 198 195 195 194 198 201 203 206 208 201 211 211 201 180 185 217 206 202 199 195 194 189 181 188 206 194 204 213 248 73 205 186 271 189 206 203 225 246 235 228 212 204 191
186 188 195 196 195 197 198 200 198 207 214 211 212 213 196 177 217 211 199 203 201 192 189 185 180 194 222 204 206 235 243 245 158 160 192 209 215 215 228 235 255 233 227 199 201
190 188 192 195 198 193 197 196 200 198 207 212 209 208 180 202 235 201 196 199 199 192 191 192 193 207 213 198 197 235 193 202 166 175 221 280 240 241 246 242 247 235 226 204 208
189 192 192 195 200 205 205 199 200 201 198 204 204 204 185 228 218 188 181 188 190 190 205 192 217 218 204 211 236 171 196 199 199 201 218 261 257 233 244 243 236 233 231 220 221
192 196 200 201 203 208 217 219 220 215 214 211 212 205 204 236 203 188 177 178 182 187 198 202 201 181 152 172 177 175 209 217 218 201 219 250 254 241 244 246 237 236 239 235 232
192 194 200 208 210 217 218 229 235 239 239 233 223 220 246 223 198 187 184 178 172 182 189 177 164 131 77 133 172 215 240 225 137 185 174 192 264 204 218 221 244 244 242 239 238
188 191 196 205 215 222 230 230 237 252 256 255 253 189 202 207 195 189 185 179 168 165 161 154 142 134 148 213 209 207 253 217 184 202 176 212 271 111 195 226 248 250 250 247 244
200 193 200 199 206 227 238 243 240 247 252 269 253 225 229 195 201 191 187 175 160 158 136 140 162 197 220 218 228 226 229 223 252 141 225 244 254 270 254 238 257 259 255 250 247
208 220 214 217 189 191 192 209 220 259 222 222 163 293 162 196 181 188 184 177 155 189 195 166 212 207 221 224 276 302 269 258 155 95 282 257 266 270 273 267 261 258 257 255 251
235 227 225 215 186 157 118 128 164 156 261 242 241 228 227 186 169 192 182 182 187 202 165 177 223 232 91 114 230 247 258 263 268 320 261 285 281 276 270 262 257 260 258 255 256
217 226 218 224 232 235 237 208 126 38 272 259 225 222 220 201 219 188 184 189 207 209 208 225 182 164 177 194 217 235 247 258 266 314 244 287 276 264 245 253 261 259 258 258 255
242 195 216 220 232 230 237 235 203 67 265 197 201 188 211 186 225 187 177 192 208 218 211 240 161 158 199 225 215 245 218 254 269 280 270 337 288 290 284 272 245 262 257 258 257
230 249 179 189 196 179 214 205 181 147 244 100 153 198 181 201 135 180 186 197 204 184 187 180 192 199 214 213 199 237 90 195 230 262 297 246 258 264 263 256 264 260 265 268 263
206 206 204 192 186 172 181 160 145 202 228 165 149 169 155 203 132 115 174 169 204 192 238 283 7 205 231 74 219 133 119 131 219 280 259 245 224 263 253 266 260 269 250 304 285
211 198 199 196 201 183 176 136 153 208 138 176 174 180 193 179 189 198 186 188 192 197 226 204 218 163 164 129 145 200 181 229 236 205 259 101 228 250 292 283 261 282 290 288 280
230 210 202 199 194 193 167 84 197 194 202 93 143 152 190 165 201 193 201 221 221 230 273 215 217 189 194 219 179 197 204 210 231 236 270 117 240 261 227 277 269 263 271 287 290
259 226 205 194 192 192 157 207 213 190 208 159 149 183 187 195 260 198 221 230 224 212 218 214 234 165 178 218 209 173 215 250 275 70 286 251 263 266 205 226 262 270 282 278 285
285 247 223 194 194 188 207 224 224 230 168 187 209 199 223 183 191 201 199 237 222 233 226 252 259 173 134 193 243 241 226 193 218 217 236 255 262 259 267 272 232 270 291 314 320
261 236 224 194 194 205 210 221 227 211 192 195 221 205 205 177 187 232 237 180 204 220 209 226 227 122 164 211 197 184 214 225 239 243 244 259 261 278 260 341 238 175 349 2 344
198 230 194 175 186 207 229 213 203 230 226 240 257 228 205 199 210 212 226 228 76 149 178 227 274 240 218 112 290 242 228 211 214 200 241 283 268 132 3 347 44 292 309 315 324
214 239 206 176 204 213 225 220 227 214 224 229 229 216 219 226 219 234 245 251 179 234 165 121 282 243 238 217 207 237 225 249 236 259 218 217 253 144 337 243 289 295 325 237 229
197 203 174 204 237 239 217 221 215 223 239 222 239 228 223 216 220 227 222 237 205 199 195 113 187 229 231 217 86 218 234 234 234 233 245 239 253 268 259 265 267 268 289 284 277
206 226 188 197 225 219 226 216 214 215 219 222 231 232 214 230 234 238 243 249 170 217 192 170 224 221 246 262 277 274 270 245 223 235 239 258 251 266 274 276 286 293 291 287 290
200 211 211 273 219 205 214 221 227 215 191 215 232 227 230 240 239 241 299 292 246 185 215 168 252 254 264 260 257 254 250 241 229 232 239 246 258 261 280 282 279 279 276 278 281
218 211 217 217 206 203 212 218 224 219 221 241 242 223 218 238 299 311 288 246 265 338 226 184 181 169 262 270 275 261 239 239 245 244 243 248 260 274 274 279 282 279 284 287 282